Location: Newark
(45.4422°N, 16.2769°E)
Time: 05:36:20
(UTC+00:00)

Courier 1B - Pass Details

Date: 19 December 2019
Orbit: 962 x 1209 km, 28.3° (Epoch: 20 January)

Event Time Altitude Azimuth Distance (km) Brightness Sun altitude
Rises 19:28:57 0° 245° (WSW) 3,761 11.1 -43.7°
Reaches altitude 10° 19:32:35 10° 227° (SW) 2,854 10.2 -44.3°
Enters shadow 19:33:01 11° 223° (SW) 2,770 10.1 -44.4°
Maximum altitude 19:36:55 17° 188° (S) 2,402 - -45.0°
Drops below altitude 10° 19:41:24 10° 149° (SSE) 2,969 - -45.8°
Sets 19:45:17 0° 131° (SE) 3,976 - -46.5°
